Home > Time Zones > World Clock > Weather > Spain > Jaén > Past weeks

Flag for Spain Weather past 2 weeks in Jaén, Spain

Now
84 °F

Sunny.


Feels Like: 82 °F
Forecast: 53 / 86 °F
Wind: 2 mph from North

Location: Granada / Aeropuerto

Current Time: Oct 20, 2014 at 2:34:54 PM

Latest Report: Oct 20, 2014 at 2:00 PM


Visibility: 10 mi

Pressure: 30.18 "Hg

Humidity: 27%

Dew point: 46 °F

Location of JaénLocation

Historic Weather in Jaén — Graph

°F

Jaén temperature yesterday

Maximum temperature yesterday: 91 °F (at 3:30 PM)
Minimum temperature yesterday: 55 °F (at 6:30 AM)
Average temperature yesterday: 71 °F

Past Weeks' High & Low Weather Summary

 TemperatureHumidityPressure
High91 °F (Oct 19, 3:30 PM)100% (Oct 6, 9:00 AM)30.21 "Hg (Oct 6, 9:00 AM)
Low46 °F (Oct 7, 8:30 AM)15% (Oct 19, 3:30 PM)29.80 "Hg (Oct 11, 5:00 PM)
Average64 °F71%30.03 "Hg
* Reported Oct 5 1:00 PM — Oct 20 1:30 PM, Jaén, Weather by CustomWeather, © 2014

Note: Actual official high and low records may vary slightly from our data, if they occured in-between our weather recording intervals... More about our weather records

Advertising

Jaén weather history for previous 24 hours

 ConditionsComfort  
Time TempWeatherWind HumidityBarometerVisibility
1:30 PM
Oct 20
82 °FPassing clouds.3 mph28%30.18 "HgN/A
1:00 PM81 °FSunny.1 mph30%30.18 "Hg10 mi
12:30 PM79 °FSunny.2 mph32%30.21 "Hg10 mi
12:00 PM77 °FPassing clouds.5 mph32%30.21 "HgN/A
11:30 AM73 °FPassing clouds.3 mph36%30.21 "HgN/A
11:00 AM73 °FSunny.1 mph36%30.21 "Hg10 mi
10:30 AM70 °FSunny.2 mph43%30.21 "Hg10 mi
10:00 AM66 °FPassing clouds.6 mph49%30.18 "HgN/A
9:30 AM59 °FSunny.2 mph68%30.18 "Hg10 mi
9:00 AM57 °FClear.2 mph67%30.18 "Hg10 mi
8:30 AM59 °FClear.5 mph59%30.15 "Hg10 mi
8:00 AM59 °FClear.7 mph59%30.15 "Hg10 mi
7:30 AM57 °FClear.5 mph67%30.15 "Hg10 mi
5:00 AM55 °FClear.1 mph67%30.15 "Hg10 mi
4:30 AM57 °FClear.No wind67%30.15 "Hg10 mi
4:00 AM59 °FClear.3 mph59%30.15 "Hg10 mi
3:30 AM61 °FClear.2 mph59%30.15 "Hg10 mi
3:00 AM66 °FClear.2 mph43%30.15 "Hg10 mi
2:30 AM59 °FClear.No wind68%30.15 "Hg10 mi
2:00 AM59 °FClear.1 mph72%30.15 "Hg10 mi
1:30 AM61 °FClear.2 mph68%30.15 "Hg10 mi
1:00 AM61 °FClear.No wind68%30.15 "Hg10 mi
12:30 AM63 °FClear.2 mph64%30.15 "Hg10 mi
12:00 AM64 °FClear.2 mph52%30.15 "Hg10 mi
11:30 PM
Oct 19
64 °FClear.6 mph56%30.15 "Hg10 mi
11:00 PM64 °FClear.1 mph60%30.15 "Hg10 mi
10:30 PM66 °FClear.1 mph52%30.15 "Hg10 mi
10:00 PM68 °FClear.1 mph46%30.12 "Hg10 mi
9:30 PM70 °FClear.3 mph43%30.12 "Hg10 mi
9:00 PM68 °FClear.1 mph49%30.12 "Hg10 mi
8:30 PM77 °FPassing clouds.6 mph24%30.09 "HgN/A
8:00 PM77 °FPassing clouds.6 mph26%30.09 "HgN/A
7:30 PM79 °FSunny.5 mph24%30.09 "Hg10 mi
7:00 PM84 °FPassing clouds.7 mph20%30.09 "HgN/A
6:30 PM86 °FPassing clouds.12 mph18%30.09 "HgN/A
6:00 PM88 °FPassing clouds.17 mph16%30.07 "HgN/A
5:30 PM86 °FPassing clouds.16 mph17%30.09 "HgN/A
5:00 PM88 °FSunny.15 mph17%30.09 "Hg10 mi
4:30 PM90 °FPassing clouds.14 mph15%30.09 "HgN/A
4:00 PM90 °FPassing clouds.14 mph16%30.09 "HgN/A
3:30 PM91 °FSunny.15 mph15%30.09 "Hg10 mi
3:00 PM90 °FPassing clouds.16 mph16%30.09 "HgN/A
2:30 PM90 °FPassing clouds.15 mph16%30.09 "HgN/A
2:00 PM90 °FPassing clouds.14 mph18%30.12 "HgN/A
Weather by CustomWeather, © 2014

See weather overviewHow to use our weather pages